| time (UTC) | temp F | wind direction | speed knots | gust knots | rain 1hr in | rain 24hr in | rain mn in | humidity % | barometer mb |
| 20260507193604 | 82 | 236 | 0.9 | 7.0 | 0.00 | 0.00 | 0.00 | 32 | 1014.8 |
| 20260507193104 | 82 | 288 | 1.7 | 6.1 | 0.00 | 0.00 | 0.00 | 32 | 1014.8 |
| 20260507192603 | 81 | 282 | 1.7 | 6.1 | 0.00 | 0.00 | 0.00 | 32 | 1014.9 |
| 20260507192104 | 81 | 310 | 3.5 | 6.1 | 0.00 | 0.00 | 0.00 | 33 | 1015.0 |
| 20260507191604 | 80 | 319 | 2.6 | 7.0 | 0.00 | 0.00 | 0.00 | 32 | 1015.0 |
| 20260507191104 | 80 | 253 | 4.3 | 7.0 | 0.00 | 0.00 | 0.00 | 32 | 1015.3 |
| 20260507190604 | 80 | 297 | 2.6 | 6.1 | 0.00 | 0.00 | 0.00 | 32 | 1015.2 |
| 20260507190104 | 79 | 183 | 2.6 | 7.0 | 0.00 | 0.00 | 0.00 | 31 | 1015.3 |
| 20260507185603 | 79 | 260 | 2.6 | 7.0 | 0.00 | 0.00 | 0.00 | 31 | 1015.4 |
| 20260507185104 | 78 | 273 | 2.6 | 7.0 | 0.00 | 0.00 | 0.00 | 33 | 1015.4 |
| 20260507184604 | 78 | 300 | 2.6 | 6.1 | 0.00 | 0.00 | 0.00 | 34 | 1015.3 |
| 20260507184104 | 77 | 309 | 3.5 | 6.1 | 0.00 | 0.00 | 0.00 | 34 | 1015.4 |
| 20260507183603 | 77 | 303 | 3.5 | 6.1 | 0.00 | 0.00 | 0.00 | 34 | 1015.5 |
| 20260507183104 | 77 | 274 | 2.6 | 7.0 | 0.00 | 0.00 | 0.00 | 34 | 1015.6 |
| 20260507182604 | 77 | 273 | 4.3 | 7.0 | 0.00 | 0.00 | 0.00 | 35 | 1015.7 |
| 20260507182106 | 76 | 291 | 2.6 | 5.2 | 0.00 | 0.00 | 0.00 | 35 | 1015.7 |
| 20260507181604 | 76 | 277 | 2.6 | 5.2 | 0.00 | 0.00 | 0.00 | 36 | 1015.7 |
| 20260507181106 | 76 | 294 | 3.5 | 6.1 | 0.00 | 0.00 | 0.00 | 37 | 1015.8 |
| 20260507180604 | 75 | 253 | 4.3 | 6.1 | 0.00 | 0.00 | 0.00 | 38 | 1015.8 |
| 20260507180104 | 75 | 285 | 2.6 | 6.1 | 0.00 | 0.00 | 0.00 | 39 | 1015.9 |
| 20260507175104 | 75 | 270 | 3.5 | 6.1 | 0.00 | 0.00 | 0.00 | 39 | 1016.0 |
| 20260507174104 | 74 | 304 | 1.7 | 5.2 | 0.00 | 0.00 | 0.00 | 39 | 1016.0 |
| 20260507173605 | 73 | 318 | 2.6 | 5.2 | 0.00 | 0.00 | 0.00 | 40 | 1016.0 |
| 20260507173104 | 73 | 308 | 2.6 | 5.2 | 0.00 | 0.00 | 0.00 | 42 | 1016.0 |
| 20260507172604 | 73 | 303 | 2.6 | 6.1 | 0.00 | 0.00 | 0.00 | 43 | 1016.0 |
| 20260507172104 | 73 | 314 | 3.5 | 6.1 | 0.00 | 0.00 | 0.00 | 43 | 1016.0 |
| 20260507171604 | 72 | 281 | 2.6 | 6.1 | 0.00 | 0.00 | 0.00 | 44 | 1016.0 |
| 20260507171107 | 72 | 265 | 2.6 | 6.1 | 0.00 | 0.00 | 0.00 | 44 | 1016.0 |
| 20260507170604 | 72 | 305 | 1.7 | 5.2 | 0.00 | 0.00 | 0.00 | 44 | 1016.0 |
| 20260507165105 | 70 | 321 | 1.7 | 4.3 | 0.00 | 0.00 | 0.00 | 45 | 1016.2 |
| 20260507164604 | 70 | 298 | 2.6 | 4.3 | 0.00 | 0.00 | 0.00 | 45 | 1016.2 |
| 20260507164104 | 69 | 257 | 2.6 | 4.3 | 0.00 | 0.00 | 0.00 | 45 | 1016.2 |
| 20260507163604 | 69 | 234 | 1.7 | 4.3 | 0.00 | 0.00 | 0.00 | 45 | 1016.2 |
| 20260507163105 | 68 | 294 | 2.6 | 4.3 | 0.00 | 0.00 | 0.00 | 46 | 1016.2 |
| 20260507162105 | 67 | 318 | 1.7 | 2.6 | 0.00 | 0.00 | 0.00 | 46 | 1016.2 |
| 20260507161104 | 66 | 302 | 1.7 | 4.3 | 0.00 | 0.00 | 0.00 | 49 | 1016.2 |
| 20260507160104 | 66 | 273 | 2.6 | 5.2 | 0.00 | 0.00 | 0.00 | 53 | 1016.3 |
| 20260507155604 | 66 | 299 | 2.6 | 4.3 | 0.00 | 0.00 | 0.00 | 54 | 1016.2 |
| 20260507154604 | 66 | 65 | 1.7 | 4.3 | 0.00 | 0.00 | 0.00 | 55 | 1016.2 |
| 20260507154104 | 65 | 86 | 0.9 | 2.6 | 0.00 | 0.00 | 0.00 | 55 | 1016.3 |
| 20260507153104 | 64 | 89 | 0.9 | 2.6 | 0.00 | 0.00 | 0.00 | 58 | 1016.2 |
| 20260507152604 | 63 | 90 | 0.0 | 0.9 | 0.00 | 0.00 | 0.00 | 60 | 1016.2 |
| 20260507152104 | 63 | 90 | 0.0 | 1.7 | 0.00 | 0.00 | 0.00 | 59 | 1016.2 |
| 20260507151604 | 63 | 90 | 0.0 | 2.6 | 0.00 | 0.00 | 0.00 | 61 | 1016.2 |
| 20260507151107 | 63 | 90 | 1.7 | 2.6 | 0.00 | 0.00 | 0.00 | 61 | 1016.2 |
| 20260507150604 | 64 | 90 | 0.9 | 2.6 | 0.00 | 0.00 | 0.00 | 59 | 1016.3 |
| 20260507150105 | 64 | 90 | 0.0 | 1.7 | 0.00 | 0.00 | 0.00 | 57 | 1016.3 |
| 20260507145604 | 65 | 90 | 0.0 | 0.9 | 0.00 | 0.00 | 0.00 | 58 | 1016.3 |
| 20260507145104 | 64 | 79 | 0.0 | 0.0 | 0.00 | 0.00 | 0.00 | 57 | 1016.3 |
| 20260507144604 | 63 | 79 | 0.0 | 0.0 | 0.00 | 0.00 | 0.00 | 57 | 1016.3 |
| 20260507144105 | 63 | 79 | 0.0 | 0.0 | 0.00 | 0.00 | 0.00 | 59 | 1016.3 |
| 20260507143604 | 62 | 79 | 0.0 | 0.0 | 0.00 | 0.00 | 0.00 | 60 | 1016.3 |
| 20260507143104 | 61 | 79 | 0.0 | 0.0 | 0.00 | 0.00 | 0.00 | 62 | 1016.3 |
| 20260507142604 | 60 | 79 | 0.0 | 0.0 | 0.00 | 0.00 | 0.00 | 63 | 1016.3 |
| 20260507142104 | 59 | 79 | 0.0 | 0.0 | 0.00 | 0.00 | 0.00 | 65 | 1016.3 |
| 20260507141607 | 58 | 79 | 0.0 | 0.0 | 0.00 | 0.00 | 0.00 | 64 | 1016.3 |
| 20260507141104 | 57 | 79 | 0.0 | 0.0 | 0.00 | 0.00 | 0.00 | 64 | 1016.3 |
| 20260507140604 | 57 | 79 | 0.0 | 0.9 | 0.00 | 0.00 | 0.00 | 65 | 1016.3 |
| 20260507140104 | 57 | 79 | 0.0 | 1.7 | 0.00 | 0.00 | 0.00 | 65 | 1016.2 |
| 20260507135604 | 57 | 80 | 0.0 | 1.7 | 0.00 | 0.00 | 0.00 | 64 | 1016.1 |
| 20260507134103 | 56 | 76 | 0.0 | 1.7 | 0.00 | 0.00 | 0.00 | 63 | 1016.1 |
| 20260507133604 | 55 | 75 | 0.0 | 1.7 | 0.00 | 0.00 | 0.00 | 65 | 1016.1 |
| 20260507133104 | 55 | 62 | 0.0 | 1.7 | 0.00 | 0.00 | 0.00 | 65 | 1016.1 |
| 20260507132604 | 55 | 86 | 0.0 | 0.9 | 0.00 | 0.00 | 0.00 | 65 | 1016.0 |
| 20260507132104 | 55 | 86 | 0.0 | 0.9 | 0.00 | 0.00 | 0.00 | 64 | 1016.0 |
| 20260507131107 | 56 | 86 | 0.0 | 0.0 | 0.00 | 0.00 | 0.00 | 62 | 1016.0 |
| 20260507130104 | 56 | 86 | 0.0 | 0.9 | 0.00 | 0.00 | 0.00 | 62 | 1015.9 |
| 20260507125604 | 56 | 86 | 0.0 | 0.9 | 0.00 | 0.00 | 0.00 | 62 | 1015.9 |
| 20260507125104 | 56 | 86 | 0.0 | 0.9 | 0.00 | 0.00 | 0.00 | 62 | 1015.9 |
| 20260507124604 | 56 | 84 | 0.0 | 0.9 | 0.00 | 0.00 | 0.00 | 63 | 1015.9 |
| 20260507124104 | 55 | 85 | 0.9 | 0.9 | 0.00 | 0.00 | 0.00 | 66 | 1015.9 |
| 20260507123604 | 55 | 88 | 0.0 | 0.9 | 0.00 | 0.00 | 0.00 | 69 | 1015.9 |
| 20260507122106 | 54 | 88 | 0.0 | 0.9 | 0.00 | 0.00 | 0.00 | 72 | 1015.9 |
| 20260507121605 | 54 | 88 | 0.0 | 0.9 | 0.00 | 0.00 | 0.00 | 72 | 1015.9 |
| 20260507121107 | 54 | 88 | 0.0 | 1.7 | 0.00 | 0.00 | 0.00 | 73 | 1015.9 |
| 20260507120604 | 54 | 88 | 0.0 | 1.7 | 0.00 | 0.00 | 0.00 | 73 | 1015.8 |
| 20260507120104 | 54 | 73 | 0.9 | 1.7 | 0.00 | 0.00 | 0.00 | 74 | 1015.9 |
| 20260507114604 | 54 | 85 | 0.0 | 0.9 | 0.00 | 0.00 | 0.00 | 75 | 1015.9 |
| 20260507114104 | 55 | 85 | 0.0 | 0.9 | 0.00 | 0.00 | 0.00 | 75 | 1016.0 |
| 20260507113604 | 55 | 85 | 0.0 | 0.9 | 0.00 | 0.00 | 0.00 | 74 | 1016.1 |
| 20260507113104 | 55 | 85 | 0.0 | 0.9 | 0.00 | 0.00 | 0.00 | 74 | 1016.3 |
| 20260507112104 | 55 | 85 | 0.0 | 0.9 | 0.00 | 0.00 | 0.00 | 77 | 1016.4 |
| 20260507111605 | 55 | 85 | 0.0 | 0.9 | 0.00 | 0.00 | 0.00 | 77 | 1016.4 |
| 20260507111104 | 55 | 85 | 0.0 | 0.9 | 0.00 | 0.00 | 0.00 | 77 | 1016.4 |
| 20260507110604 | 55 | 84 | 0.0 | 0.9 | 0.00 | 0.00 | 0.00 | 77 | 1016.4 |
| 20260507110105 | 55 | 84 | 0.0 | 0.9 | 0.00 | 0.00 | 0.00 | 77 | 1016.4 |
| 20260507105603 | 55 | 81 | 0.9 | 0.9 | 0.00 | 0.00 | 0.00 | 77 | 1016.4 |
| 20260507105104 | 55 | 83 | 0.0 | 0.9 | 0.00 | 0.00 | 0.00 | 77 | 1016.4 |
| 20260507104104 | 55 | 83 | 0.0 | 0.9 | 0.00 | 0.00 | 0.00 | 77 | 1016.5 |
| 20260507103604 | 55 | 82 | 0.0 | 0.9 | 0.00 | 0.00 | 0.00 | 77 | 1016.5 |
| 20260507103104 | 55 | 82 | 0.0 | 0.0 | 0.00 | 0.00 | 0.00 | 77 | 1016.5 |
| 20260507102604 | 55 | 82 | 0.0 | 0.9 | 0.00 | 0.00 | 0.00 | 77 | 1016.6 |
| 20260507102106 | 55 | 82 | 0.0 | 0.9 | 0.00 | 0.00 | 0.00 | 77 | 1016.6 |
| 20260507101604 | 55 | 82 | 0.0 | 0.9 | 0.00 | 0.00 | 0.00 | 76 | 1016.6 |
| 20260507101106 | 55 | 82 | 0.0 | 0.9 | 0.00 | 0.00 | 0.00 | 76 | 1016.7 |
| 20260507100604 | 55 | 82 | 0.0 | 0.9 | 0.00 | 0.00 | 0.00 | 75 | 1016.7 |
| 20260507100104 | 56 | 82 | 0.0 | 0.0 | 0.00 | 0.00 | 0.00 | 75 | 1017.0 |
| 20260507095603 | 56 | 82 | 0.0 | 0.0 | 0.00 | 0.00 | 0.00 | 75 | 1017.0 |
| 20260507095104 | 56 | 82 | 0.0 | 0.9 | 0.00 | 0.00 | 0.00 | 75 | 1017.0 |
| 20260507094604 | 56 | 82 | 0.0 | 0.9 | 0.00 | 0.00 | 0.00 | 75 | 1017.0 |
| 20260507094104 | 56 | 82 | 0.0 | 0.9 | 0.00 | 0.00 | 0.00 | 74 | 1017.0 |
| 20260507093603 | 56 | 82 | 0.0 | 0.9 | 0.00 | 0.00 | 0.00 | 74 | 1017.1 |
| 20260507093104 | 56 | 82 | 0.0 | 0.9 | 0.00 | 0.00 | 0.00 | 74 | 1017.1 |
| 20260507092104 | 56 | 82 | 0.0 | 0.9 | 0.00 | 0.00 | 0.00 | 75 | 1017.2 |
| 20260507091604 | 56 | 82 | 0.0 | 0.9 | 0.00 | 0.00 | 0.00 | 76 | 1017.2 |
| 20260507091104 | 56 | 82 | 0.0 | 0.9 | 0.00 | 0.00 | 0.00 | 77 | 1017.2 |
| 20260507090605 | 56 | 81 | 0.0 | 0.9 | 0.00 | 0.00 | 0.00 | 78 | 1017.2 |
| 20260507090105 | 56 | 82 | 0.0 | 1.7 | 0.00 | 0.00 | 0.00 | 77 | 1017.2 |
| 20260507085104 | 56 | 73 | 0.9 | 1.7 | 0.00 | 0.00 | 0.00 | 79 | 1017.3 |
| 20260507084604 | 56 | 74 | 0.0 | 1.7 | 0.00 | 0.00 | 0.00 | 79 | 1017.3 |
| 20260507084104 | 56 | 74 | 0.9 | 1.7 | 0.00 | 0.00 | 0.00 | 79 | 1017.5 |
| 20260507083604 | 56 | 41 | 0.9 | 0.9 | 0.00 | 0.00 | 0.00 | 79 | 1017.5 |
| 20260507083104 | 56 | 41 | 0.9 | 0.9 | 0.00 | 0.00 | 0.00 | 79 | 1017.5 |
| 20260507082604 | 56 | 31 | 0.0 | 0.9 | 0.00 | 0.00 | 0.00 | 79 | 1017.4 |
| 20260507082106 | 56 | 30 | 0.0 | 0.9 | 0.00 | 0.00 | 0.00 | 79 | 1017.4 |
| 20260507081605 | 56 | 30 | 0.0 | 1.7 | 0.00 | 0.00 | 0.00 | 79 | 1017.6 |
| 20260507080604 | 56 | 19 | 0.0 | 1.7 | 0.00 | 0.00 | 0.00 | 78 | 1017.5 |
| 20260507080105 | 56 | 17 | 0.0 | 1.7 | 0.00 | 0.00 | 0.00 | 77 | 1017.6 |
| 20260507075604 | 56 | 14 | 0.0 | 0.9 | 0.00 | 0.00 | 0.00 | 77 | 1017.6 |
| 20260507075104 | 56 | 15 | 0.0 | 0.0 | 0.00 | 0.00 | 0.00 | 76 | 1017.5 |
| 20260507074604 | 57 | 15 | 0.0 | 1.7 | 0.00 | 0.00 | 0.00 | 76 | 1017.6 |
| 20260507074104 | 57 | 14 | 0.0 | 1.7 | 0.00 | 0.00 | 0.00 | 76 | 1017.7 |
| 20260507073104 | 57 | 0 | 0.0 | 0.9 | 0.00 | 0.00 | 0.00 | 75 | 1017.7 |
| 20260507072603 | 57 | 0 | 0.0 | 0.9 | 0.00 | 0.00 | 0.00 | 75 | 1017.8 |
| 20260507072104 | 57 | 0 | 0.0 | 0.9 | 0.00 | 0.00 | 0.00 | 75 | 1017.8 |
| 20260507071104 | 58 | 355 | 0.0 | 0.9 | 0.00 | 0.00 | 0.00 | 74 | 1018.1 |
| 20260507070605 | 58 | 355 | 0.0 | 0.9 | 0.00 | 0.00 | 0.00 | 74 | 1018.1 |
| 20260507065605 | 58 | 355 | 0.0 | 0.9 | 0.00 | 0.00 | 0.00 | 73 | 1018.1 |
| 20260507065104 | 58 | 355 | 0.0 | 0.9 | 0.00 | 0.00 | 0.00 | 73 | 1018.2 |
| 20260507064604 | 59 | 355 | 0.0 | 0.9 | 0.00 | 0.00 | 0.00 | 72 | 1018.1 |
| 20260507063604 | 59 | 354 | 0.0 | 0.9 | 0.00 | 0.00 | 0.00 | 72 | 1018.2 |
| 20260507063104 | 59 | 355 | 0.0 | 0.9 | 0.00 | 0.00 | 0.00 | 72 | 1018.1 |
| 20260507062604 | 59 | 355 | 0.0 | 1.7 | 0.00 | 0.00 | 0.00 | 72 | 1018.2 |
| 20260507062106 | 59 | 354 | 0.0 | 1.7 | 0.00 | 0.00 | 0.00 | 72 | 1018.1 |
| 20260507061604 | 59 | 323 | 0.0 | 0.9 | 0.00 | 0.00 | 0.00 | 71 | 1017.9 |
| 20260507061106 | 60 | 323 | 0.0 | 0.9 | 0.00 | 0.00 | 0.00 | 71 | 1018.0 |
| 20260507060604 | 60 | 323 | 0.0 | 0.9 | 0.00 | 0.00 | 0.00 | 70 | 1018.0 |
| 20260507055605 | 60 | 323 | 0.9 | 0.9 | 0.00 | 0.00 | 0.00 | 70 | 1018.0 |
| 20260507055104 | 61 | 317 | 0.9 | 0.9 | 0.00 | 0.00 | 0.00 | 69 | 1018.0 |
| 20260507054104 | 61 | 315 | 0.0 | 0.0 | 0.00 | 0.00 | 0.00 | 68 | 1018.0 |
| 20260507053604 | 61 | 315 | 0.0 | 1.7 | 0.00 | 0.00 | 0.00 | 68 | 1017.9 |
| 20260507052604 | 62 | 315 | 0.0 | 1.7 | 0.00 | 0.00 | 0.00 | 67 | 1018.1 |
| 20260507052104 | 62 | 320 | 0.0 | 1.7 | 0.00 | 0.00 | 0.00 | 67 | 1018.0 |
| 20260507051604 | 62 | 315 | 0.0 | 0.9 | 0.00 | 0.00 | 0.00 | 67 | 1018.1 |
| 20260507051106 | 62 | 315 | 0.0 | 0.9 | 0.00 | 0.00 | 0.00 | 67 | 1018.1 |
| 20260507050604 | 62 | 315 | 0.0 | 0.9 | 0.00 | 0.00 | 0.00 | 66 | 1018.0 |
| 20260507050104 | 62 | 315 | 0.0 | 0.9 | 0.00 | 0.00 | 0.00 | 66 | 1018.1 |
| 20260507045604 | 62 | 315 | 0.0 | 1.7 | 0.00 | 0.00 | 0.00 | 66 | 1018.1 |
| 20260507045104 | 63 | 322 | 0.0 | 1.7 | 0.00 | 0.00 | 0.00 | 66 | 1018.1 |
| 20260507044104 | 63 | 298 | 0.9 | 1.7 | 0.00 | 0.00 | 0.00 | 65 | 1017.9 |
| 20260507043604 | 63 | 294 | 0.0 | 0.9 | 0.00 | 0.00 | 0.00 | 65 | 1017.9 |
| 20260507043104 | 63 | 294 | 0.0 | 0.9 | 0.00 | 0.00 | 0.00 | 65 | 1017.8 |
| 20260507042604 | 64 | 294 | 0.0 | 0.9 | 0.00 | 0.00 | 0.00 | 65 | 1017.8 |
| 20260507042106 | 64 | 294 | 0.0 | 0.9 | 0.00 | 0.00 | 0.00 | 64 | 1017.8 |
| 20260507041604 | 64 | 294 | 0.0 | 0.9 | 0.00 | 0.00 | 0.00 | 64 | 1017.8 |
| 20260507041107 | 64 | 294 | 0.0 | 0.9 | 0.00 | 0.00 | 0.00 | 64 | 1017.8 |
| 20260507040604 | 64 | 294 | 0.0 | 0.9 | 0.00 | 0.00 | 0.00 | 63 | 1017.8 |
| 20260507035604 | 65 | 293 | 0.0 | 2.6 | 0.00 | 0.00 | 0.00 | 62 | 1017.8 |
| 20260507035103 | 65 | 292 | 0.0 | 2.6 | 0.00 | 0.00 | 0.00 | 62 | 1017.8 |
| 20260507034604 | 65 | 292 | 1.7 | 2.6 | 0.00 | 0.00 | 0.00 | 61 | 1017.6 |
| 20260507034104 | 65 | 292 | 1.7 | 2.6 | 0.00 | 0.00 | 0.00 | 61 | 1017.6 |
| 20260507033605 | 65 | 292 | 1.7 | 4.3 | 0.00 | 0.00 | 0.00 | 61 | 1017.5 |
| 20260507033104 | 65 | 292 | 1.7 | 4.3 | 0.00 | 0.00 | 0.00 | 61 | 1017.3 |
| 20260507032104 | 66 | 280 | 2.6 | 4.3 | 0.00 | 0.00 | 0.00 | 60 | 1017.3 |
| 20260507031605 | 66 | 264 | 2.6 | 2.6 | 0.00 | 0.00 | 0.00 | 59 | 1017.2 |
| 20260507030604 | 67 | 248 | 1.7 | 2.6 | 0.00 | 0.00 | 0.00 | 58 | 1017.2 |
| 20260507030104 | 67 | 245 | 1.7 | 2.6 | 0.00 | 0.00 | 0.00 | 58 | 1017.2 |
| 20260507025604 | 67 | 243 | 0.9 | 2.6 | 0.00 | 0.00 | 0.00 | 58 | 1017.2 |
| 20260507025104 | 67 | 243 | 0.9 | 2.6 | 0.00 | 0.00 | 0.00 | 57 | 1017.1 |
| 20260507024604 | 67 | 243 | 0.9 | 2.6 | 0.00 | 0.00 | 0.00 | 57 | 1016.8 |
| 20260507024105 | 68 | 243 | 0.9 | 2.6 | 0.00 | 0.00 | 0.00 | 57 | 1016.7 |
| 20260507023604 | 68 | 243 | 0.9 | 2.6 | 0.00 | 0.00 | 0.00 | 56 | 1016.7 |
| 20260507023104 | 69 | 242 | 1.7 | 4.3 | 0.00 | 0.00 | 0.00 | 55 | 1016.7 |
| 20260507022604 | 69 | 305 | 1.7 | 4.3 | 0.00 | 0.00 | 0.00 | 54 | 1016.7 |
| 20260507022106 | 70 | 320 | 2.6 | 6.1 | 0.00 | 0.00 | 0.00 | 53 | 1016.7 |
| 20260507021604 | 70 | 254 | 1.7 | 7.0 | 0.00 | 0.00 | 0.00 | 53 | 1016.6 |
| 20260507020604 | 71 | 262 | 4.3 | 7.0 | 0.00 | 0.00 | 0.00 | 50 | 1016.5 |
| 20260507015604 | 72 | 244 | 4.3 | 8.7 | 0.00 | 0.00 | 0.00 | 48 | 1016.3 |
| 20260507014604 | 73 | 267 | 4.3 | 8.7 | 0.00 | 0.00 | 0.00 | 48 | 1016.3 |
| 20260507014104 | 73 | 258 | 4.3 | 7.8 | 0.00 | 0.00 | 0.00 | 48 | 1016.3 |
| 20260507013604 | 74 | 260 | 4.3 | 7.8 | 0.00 | 0.00 | 0.00 | 47 | 1016.3 |
| 20260507012104 | 75 | 265 | 5.2 | 8.7 | 0.00 | 0.00 | 0.00 | 43 | 1016.2 |
| 20260507011604 | 75 | 276 | 5.2 | 10.4 | 0.00 | 0.00 | 0.00 | 43 | 1016.2 |
| 20260507011105 | 76 | 274 | 6.1 | 10.4 | 0.00 | 0.00 | 0.00 | 42 | 1016.1 |
| 20260507010603 | 76 | 275 | 5.2 | 8.7 | 0.00 | 0.00 | 0.00 | 39 | 1016.0 |
| 20260507010104 | 76 | 263 | 4.3 | 8.7 | 0.00 | 0.00 | 0.00 | 40 | 1015.9 |
| 20260507005604 | 76 | 261 | 5.2 | 8.7 | 0.00 | 0.00 | 0.00 | 39 | 1015.9 |
| 20260507005104 | 77 | 275 | 4.3 | 10.4 | 0.00 | 0.00 | 0.00 | 37 | 1015.9 |
| 20260507004604 | 77 | 281 | 4.3 | 10.4 | 0.00 | 0.00 | 0.00 | 38 | 1015.8 |
| 20260507004105 | 77 | 282 | 5.2 | 10.4 | 0.00 | 0.00 | 0.00 | 35 | 1015.8 |
| 20260507003604 | 77 | 261 | 4.3 | 10.4 | 0.00 | 0.00 | 0.00 | 35 | 1015.8 |
| 20260507002604 | 77 | 322 | 6.1 | 10.4 | 0.00 | 0.00 | 0.00 | 32 | 1015.8 |
| 20260507001604 | 78 | 303 | 4.3 | 11.3 | 0.00 | 0.00 | 0.00 | 32 | 1015.8 |
| 20260507000603 | 78 | 294 | 4.3 | 10.4 | 0.00 | 0.00 | 0.00 | 32 | 1015.7 |
| 20260507000105 | 78 | 300 | 6.1 | 10.4 | 0.00 | 0.00 | 0.00 | 31 | 1015.8 |
| 20260506235604 | 78 | 320 | 4.3 | 10.4 | 0.00 | 0.00 | 0.00 | 32 | 1015.8 |
| 20260506234604 | 78 | 323 | 5.2 | 8.7 | 0.00 | 0.00 | 0.00 | 31 | 1015.6 |
| 20260506234104 | 78 | 309 | 5.2 | 11.3 | 0.00 | 0.00 | 0.00 | 32 | 1015.5 |
| 20260506233604 | 79 | 318 | 6.1 | 11.3 | 0.00 | 0.00 | 0.00 | 31 | 1015.7 |
| 20260506233104 | 80 | 276 | 4.3 | 8.7 | 0.00 | 0.00 | 0.00 | 30 | 1015.7 |
| 20260506232104 | 79 | 298 | 2.6 | 7.0 | 0.00 | 0.00 | 0.00 | 31 | 1015.7 |
| 20260506231604 | 78 | 265 | 1.7 | 7.0 | 0.00 | 0.00 | 0.00 | 31 | 1015.7 |
| 20260506230604 | 78 | 265 | 3.5 | 8.7 | 0.00 | 0.00 | 0.00 | 31 | 1015.9 |
| 20260506230105 | 78 | 0 | 2.6 | 7.8 | 0.00 | 0.00 | 0.00 | 30 | 1016.0 |
| 20260506225604 | 79 | 255 | 5.2 | 7.8 | 0.00 | 0.00 | 0.00 | 30 | 1016.0 |
| 20260506224608 | 77 | 269 | 0.9 | 6.1 | 0.00 | 0.00 | 0.00 | 31 | 1016.1 |
| 20260506224104 | 77 | 243 | 2.6 | 8.7 | 0.00 | 0.00 | 0.00 | 32 | 1016.1 |
| 20260506223604 | 77 | 296 | 2.6 | 8.7 | 0.00 | 0.00 | 0.00 | 31 | 1016.1 |
| 20260506223104 | 77 | 280 | 4.3 | 8.7 | 0.00 | 0.00 | 0.00 | 31 | 1016.2 |
| 20260506222603 | 77 | 284 | 4.3 | 7.8 | 0.00 | 0.00 | 0.00 | 30 | 1016.2 |
| 20260506222105 | 77 | 288 | 1.7 | 5.2 | 0.00 | 0.00 | 0.00 | 31 | 1016.2 |
| 20260506221604 | 76 | 313 | 1.7 | 8.7 | 0.00 | 0.00 | 0.00 | 32 | 1016.3 |
| 20260506221107 | 76 | 252 | 4.3 | 8.7 | 0.00 | 0.00 | 0.00 | 31 | 1016.6 |
| 20260506220604 | 76 | 272 | 4.3 | 7.8 | 0.00 | 0.00 | 0.00 | 32 | 1016.7 |
| 20260506220104 | 76 | 269 | 4.3 | 8.7 | 0.00 | 0.00 | 0.00 | 32 | 1016.7 |
| 20260506214104 | 76 | 276 | 3.5 | 7.0 | 0.00 | 0.00 | 0.00 | 32 | 1016.9 |
| 20260506213604 | 75 | 298 | 4.3 | 7.0 | 0.00 | 0.00 | 0.00 | 32 | 1017.0 |
| 20260506213104 | 75 | 294 | 2.6 | 7.0 | 0.00 | 0.00 | 0.00 | 32 | 1017.1 |
| 20260506212104 | 75 | 319 | 1.7 | 5.2 | 0.00 | 0.00 | 0.00 | 34 | 1017.3 |
| 20260506211104 | 74 | 249 | 2.6 | 10.4 | 0.00 | 0.00 | 0.00 | 31 | 1017.4 |
| 20260506210604 | 73 | 251 | 4.3 | 10.4 | 0.00 | 0.00 | 0.00 | 34 | 1017.4 |
| 20260506210105 | 73 | 259 | 1.7 | 7.8 | 0.00 | 0.00 | 0.00 | 35 | 1017.4 |
| 20260506205604 | 72 | 275 | 3.5 | 7.8 | 0.00 | 0.00 | 0.00 | 37 | 1017.4 |
| 20260506204603 | 72 | 332 | 2.6 | 7.0 | 0.00 | 0.00 | 0.00 | 35 | 1017.5 |
| 20260506204104 | 72 | 294 | 3.5 | 7.0 | 0.00 | 0.00 | 0.00 | 34 | 1017.5 |
| 20260506202604 | 71 | 290 | 2.6 | 6.1 | 0.00 | 0.00 | 0.00 | 36 | 1017.8 |
| 20260506202107 | 71 | 293 | 1.7 | 6.1 | 0.00 | 0.00 | 0.00 | 38 | 1017.9 |
| 20260506201604 | 70 | 284 | 2.6 | 7.8 | 0.00 | 0.00 | 0.00 | 35 | 1017.9 |
| 20260506201106 | 70 | 299 | 1.7 | 7.8 | 0.00 | 0.00 | 0.00 | 36 | 1018.0 |
| 20260506200604 | 70 | 305 | 2.6 | 7.8 | 0.00 | 0.00 | 0.00 | 39 | 1018.0 |
| 20260506200104 | 69 | 298 | 2.6 | 7.8 | 0.00 | 0.00 | 0.00 | 39 | 1018.1 |
| 20260506195604 | 69 | 259 | 1.7 | 7.0 | 0.00 | 0.00 | 0.00 | 39 | 1018.2 |
| 20260506194604 | 69 | 279 | 4.3 | 7.0 | 0.00 | 0.00 | 0.00 | 40 | 1018.4 |